When you browse on this site, cookies collect data to enhance your experience and personalize the content and advertising you see.
Visit our Privacy Policy to learn more. By continuing to use the site, you agree to this use of cookies and data.
  • In Spain
  • List of Countries
  • For 7 days
  • Water Temperature
  • Satellite Maps
  • Weather Map
  • Weather Widgets
  • user-avatar
    Login

    Hourly Weather Zenica

    Today, 18 November, Sunday

    Time Temperature Precipitation Wind Pressure Humidity
    00:00 -5°C° 0 mm 2 mps 679 mmHg 88%
    01:00 -5°C° 0 mm 2 mps 679 mmHg 89%
    02:00 -5°C° 0 mm 2 mps 679 mmHg 88%
    03:00 -5°C° 0 mm 2 mps 679 mmHg 87%
    04:00 -5°C° 0 mm 2 mps 678 mmHg 86%
    05:00 -5°C° 0 mm 2 mps 678 mmHg 86%
    06:00 -5°C° 0 mm 2 mps 678 mmHg 86%
    07:00 -5°C° 0 mm 2 mps 678 mmHg 86%
    08:00 -4°C° 0 mm 2 mps 678 mmHg 81%
    09:00 -3°C° 0 mm 2 mps 678 mmHg 76%
    10:00 -2°C° 0 mm 2 mps 678 mmHg 71%
    11:00 -1°C° 0 mm 2 mps 677 mmHg 69%
    12:00 -1°C° 0 mm 2 mps 677 mmHg 67%
    13:00 +1°C° 0 mm 2 mps 677 mmHg 65%
    14:00 -1°C° 0 mm 2 mps 676 mmHg 69%
    15:00 -2°C° 0 mm 2 mps 675 mmHg 73%
    16:00 -2°C° 0 mm 2 mps 675 mmHg 77%
    17:00 -3°C° 0 mm 2 mps 674 mmHg 80%
    18:00 -3°C° 0 mm 2 mps 674 mmHg 83%
    19:00 -4°C° 0 mm 2 mps 674 mmHg 85%
    20:00 -2°C° 0 mm 1 mps 673 mmHg 86%
    21:00 -2°C° 0 mm 1 mps 673 mmHg 86%
    22:00 -2°C° 0 mm 1 mps 673 mmHg 86%
    23:00 -2°C° 0 mm 1 mps 673 mmHg 87%

    Tomorrow, 19 November, Monday

    Time Temperature Precipitation Wind Pressure Humidity
    00:00 -2°C° 0 mm 1 mps 672 mmHg 87%
    01:00 -2°C° 0 mm 1 mps 672 mmHg 88%
    02:00 -2°C° 0 mm 1 mps 672 mmHg 88%
    03:00 -3°C° 0 mm 1 mps 672 mmHg 89%
    04:00 -3°C° 0 mm 1 mps 672 mmHg 90%
    05:00 -3°C° 0 mm 1 mps 672 mmHg 90%
    06:00 -3°C° 0 mm 1 mps 672 mmHg 90%
    07:00 -4°C° 0 mm 0 mps 672 mmHg 90%
    08:00 -1°C° 0 mm 1 mps 672 mmHg 81%
    09:00 +1°C° 0 mm 1 mps 673 mmHg 72%
    10:00 +2°C° 0 mm 1 mps 674 mmHg 63%
    11:00 +3°C° 0 mm 1 mps 674 mmHg 61%
    12:00 +4°C° 0 mm 1 mps 674 mmHg 58%
    13:00 +5°C° 0 mm 1 mps 674 mmHg 55%
    14:00 +4°C° 0 mm 1 mps 674 mmHg 60%
    15:00 +3°C° 0 mm 1 mps 673 mmHg 66%
    16:00 +2°C° 0 mm 1 mps 673 mmHg 72%
    17:00 +2°C° 0.1 mm 1 mps 673 mmHg 76%
    18:00 +1°C° 0.1 mm 1 mps 673 mmHg 80%
    19:00 0°C° 0.1 mm 1 mps 673 mmHg 84%
    20:00 0°C° 0.2 mm 1 mps 673 mmHg 85%
    21:00 +1°C° 0.2 mm 1 mps 672 mmHg 85%
    22:00 +1°C° 0.2 mm 1 mps 672 mmHg 86%
    23:00 -1°C° 0.6 mm 2 mps 672 mmHg 87%

    Day after tomorrow, 20 November, Tuesday

    Time Temperature Precipitation Wind Pressure Humidity
    00:00 -1°C° 0.6 mm 2 mps 671 mmHg 87%
    01:00 +1°C° 0.6 mm 2 mps 670 mmHg 88%
    02:00 +1°C° 0.6 mm 2 mps 670 mmHg 89%
    03:00 +1°C° 0.6 mm 2 mps 670 mmHg 90%
    04:00 +1°C° 0.6 mm 2 mps 669 mmHg 91%
    05:00 +2°C° 1 mm 2 mps 669 mmHg 92%
    06:00 +2°C° 1 mm 2 mps 668 mmHg 92%
    07:00 +2°C° 1 mm 2 mps 668 mmHg 93%
    08:00 +2°C° 1.3 mm 3 mps 668 mmHg 91%
    09:00 +4°C° 1.3 mm 3 mps 668 mmHg 90%
    10:00 +5°C° 1.3 mm 3 mps 668 mmHg 88%
    11:00 +5°C° 2.3 mm 3 mps 668 mmHg 87%
    12:00 +7°C° 2.3 mm 3 mps 668 mmHg 86%
    13:00 +8°C° 2.3 mm 3 mps 668 mmHg 85%
    14:00 +8°C° 2.1 mm 3 mps 668 mmHg 88%
    15:00 +7°C° 2.1 mm 3 mps 668 mmHg 90%
    16:00 +7°C° 2.1 mm 3 mps 668 mmHg 92%
    17:00 +7°C° 1.2 mm 3 mps 668 mmHg 93%
    18:00 +7°C° 1.2 mm 3 mps 668 mmHg 94%
    19:00 +6°C° 1.2 mm 2 mps 668 mmHg 94%
    20:00 +6°C° 0.3 mm 2 mps 668 mmHg 95%
    21:00 +6°C° 0.3 mm 2 mps 669 mmHg 95%
    22:00 +6°C° 0.3 mm 2 mps 669 mmHg 95%
    23:00 +6°C° 0 mm 2 mps 669 mmHg 95%

    21 November, Wednesday

    Time Temperature Precipitation Wind Pressure Humidity
    00:00 +6°C° 0 mm 1 mps 669 mmHg 96%
    01:00 +6°C° 0 mm 1 mps 669 mmHg 96%
    02:00 +6°C° 0 mm 1 mps 670 mmHg 96%
    03:00 +6°C° 0 mm 1 mps 670 mmHg 96%
    04:00 +5°C° 0 mm 1 mps 670 mmHg 96%
    05:00 +5°C° 0 mm 1 mps 670 mmHg 95%
    06:00 +5°C° 0 mm 1 mps 671 mmHg 95%
    07:00 +3°C° 0 mm 0 mps 671 mmHg 94%
    08:00 +5°C° 0 mm 0 mps 672 mmHg 88%
    09:00 +8°C° 0 mm 1 mps 673 mmHg 82%
    10:00 +9°C° 0 mm 1 mps 674 mmHg 77%
    11:00 +10°C° 0 mm 1 mps 674 mmHg 71%
    12:00 +11°C° 0 mm 1 mps 675 mmHg 65%
    13:00 +11°C° 0 mm 1 mps 675 mmHg 59%
    14:00 +10°C° 0 mm 1 mps 675 mmHg 65%
    15:00 +9°C° 0 mm 1 mps 675 mmHg 71%
    16:00 +7°C° 0 mm 1 mps 675 mmHg 77%
    17:00 +6°C° 0 mm 1 mps 675 mmHg 79%
    18:00 +6°C° 0 mm 1 mps 675 mmHg 80%
    19:00 +5°C° 0 mm 1 mps 676 mmHg 81%
    20:00 +5°C° 0 mm 1 mps 676 mmHg 80%
    21:00 +5°C° 0 mm 1 mps 676 mmHg 79%
    22:00 +5°C° 0 mm 1 mps 676 mmHg 78%
    23:00 +4°C° 0 mm 1 mps 676 mmHg 78%

    22 November, Thursday

    Time Temperature Precipitation Wind Pressure Humidity
    00:00 +4°C° 0 mm 1 mps 676 mmHg 78%
    01:00 +4°C° 0 mm 1 mps 676 mmHg 78%
    02:00 +4°C° 0 mm 1 mps 676 mmHg 78%
    03:00 +4°C° 0 mm 1 mps 676 mmHg 78%
    04:00 +4°C° 0 mm 1 mps 677 mmHg 78%
    05:00 +5°C° 0.3 mm 1 mps 677 mmHg 80%
    06:00 +5°C° 0.3 mm 1 mps 677 mmHg 82%
    07:00 +5°C° 0.3 mm 1 mps 677 mmHg 83%
    08:00 +6°C° 1.1 mm 1 mps 677 mmHg 84%
    09:00 +6°C° 1.1 mm 1 mps 678 mmHg 85%
    10:00 +7°C° 1.1 mm 1 mps 678 mmHg 86%
    11:00 +8°C° 0.8 mm 1 mps 678 mmHg 86%
    12:00 +8°C° 0.8 mm 1 mps 678 mmHg 86%
    13:00 +8°C° 0.8 mm 1 mps 678 mmHg 86%
    14:00 +8°C° 0.1 mm 1 mps 678 mmHg 88%
    15:00 +8°C° 0.1 mm 1 mps 679 mmHg 90%
    16:00 +7°C° 0.1 mm 1 mps 679 mmHg 92%
    17:00 +7°C° 0 mm 1 mps 679 mmHg 92%
    18:00 +6°C° 0 mm 1 mps 679 mmHg 93%
    19:00 +6°C° 0 mm 1 mps 679 mmHg 94%
    20:00 +5°C° 0 mm 1 mps 679 mmHg 94%
    21:00 +5°C° 0 mm 1 mps 679 mmHg 94%
    22:00 +5°C° 0 mm 1 mps 680 mmHg 94%
    23:00 +5°C° 0 mm 1 mps 680 mmHg 94%

    23 November, Friday

    Time Temperature Precipitation Wind Pressure Humidity
    00:00 +5°C° 0 mm 1 mps 680 mmHg 94%
    01:00 +5°C° 0 mm 1 mps 680 mmHg 93%
    02:00 +4°C° 0 mm 1 mps 680 mmHg 93%
    03:00 +4°C° 0 mm 1 mps 680 mmHg 92%
    04:00 +4°C° 0 mm 1 mps 680 mmHg 92%
    05:00 +4°C° 0 mm 1 mps 680 mmHg 91%
    06:00 +4°C° 0 mm 1 mps 680 mmHg 91%
    07:00 +4°C° 0 mm 1 mps 680 mmHg 90%
    08:00 +6°C° 0 mm 1 mps 681 mmHg 85%
    09:00 +8°C° 0 mm 1 mps 681 mmHg 80%
    10:00 +9°C° 0 mm 1 mps 682 mmHg 75%
    11:00 +10°C° 0 mm 1 mps 682 mmHg 73%
    12:00 +11°C° 0 mm 1 mps 682 mmHg 70%
    13:00 +12°C° 0 mm 1 mps 682 mmHg 67%
    14:00 +11°C° 0 mm 1 mps 681 mmHg 74%
    15:00 +10°C° 0 mm 1 mps 681 mmHg 80%
    16:00 +8°C° 0 mm 1 mps 681 mmHg 86%
    17:00 +8°C° 0.1 mm 1 mps 681 mmHg 88%
    18:00 +8°C° 0.1 mm 1 mps 681 mmHg 90%
    19:00 +7°C° 0.1 mm 1 mps 681 mmHg 92%
    20:00 +7°C° 0.1 mm 1 mps 681 mmHg 92%
    21:00 +7°C° 0.1 mm 1 mps 681 mmHg 92%
    22:00 +6°C° 0.1 mm 2 mps 681 mmHg 92%
    23:00 +6°C° 0.1 mm 2 mps 681 mmHg 92%
    Show more